This demonstration page uses our WeatherBlox Daily Observations layout. Learn more.

Left ArrowRight Arrow

44.31136, -96.79839

Hourly Observations for August 15, 2022

Temp ( °F °C ) Dew Point ( °F °C ) Humidity (%) Winds ( mph kmh ) Pressure ( in mb ) Visibility ( mi km ) Precip ( " mm )
12:56 am 00:56 Clear 63 17.2 63 17.2 100 100 SE 6 9 30.06 1018 10 16 0.00 0.00
1:56 am 01:56 Clear 64 17.8 64 17.8 100 100 SE 7 11 30.08 1019 10 16 0.00 0.00
2:56 am 02:56 Clear 63 17.2 63 17.2 100 100 SE 9 15 30.07 1018 10 16 0.00 0.00
3:56 am 03:56 Partly Cloudy 64 17.8 63 17.2 96 96 SE 9 15 30.08 1019 10 16 0.00 0.00
4:56 am 04:56 Mostly Clear 63 17.2 63 17.2 100 100 SSE 6 9 30.08 1019 10 16 0.00 0.00
5:56 am 05:56 Clear 63 17.2 63 17.2 100 100 SE 7 11 30.07 1018 9 14 0.00 0.00
6:56 am 06:56 Sunny 62 16.7 62 16.7 100 100 SSE 9 15 30.08 1019 10 16 0.00 0.00
7:23 am 07:23 Mostly Sunny 63 17 63 17 100 100 S 10 17 30.04 1017 10 16 0.00 0.00
7:41 am 07:41 Mostly Cloudy 63 17 63 17 100 100 S 12 19 30.03 1017 10 16 0.00 0.00
7:56 am 07:56 Mostly Cloudy 63 17.2 63 17.2 100 100 S 10 17 30.08 1019 10 16 0.00 0.00
8:10 am 08:10 Partly Cloudy 63 17 63 17 100 100 S 10 17 30.03 1017 10 16 0.00 0.00
8:56 am 08:56 Mostly Sunny 65 18.3 63 17.2 93 93 SE 6 9 30.07 1018 10 16 0.00 0.00
9:56 am 09:56 Partly Cloudy 65 18.3 63 17.2 93 93 SSE 9 15 30.06 1018 10 16 0.00 0.00
10:05 am 10:05 Mostly Cloudy 64 18 63 17 94 94 SSE 10 17 30.00 1016 10 16 0.00 0.00
10:18 am 10:18 Partly Cloudy 64 18 63 17 94 94 SE 8 13 30.00 1016 10 16 0.00 0.00
10:56 am 10:56 Mostly Sunny 67 19.4 63 17.2 87 87 S 8 13 30.07 1018 10 16 0.00 0.00
11:22 am 11:22 Mostly Cloudy 68 20 63 17 83 83 S 9 15 30.01 1016 10 16 0.00 0.00
11:56 am 11:56 Cloudy 68 20 63 17.2 84 84 S 8 13 30.09 1019 10 16 0.00 0.00
12:56 pm 12:56 Cloudy 70 21.1 63 17.2 78 78 S 7 11 30.10 1019 10 16 0.00 0.00
1:56 pm 13:56 Cloudy 70 21.1 64 17.8 81 81 ESE 5 7 30.12 1020 10 16 0.00 0.00
2:56 pm 14:56 Cloudy 70 21.1 64 17.8 81 81 S 3 6 30.13 1020 10 16 0.00 0.00
3:56 pm 15:56 Cloudy 71 21.7 64 17.8 79 79 SE 7 11 30.12 1020 10 16 0.00 0.00
4:05 pm 16:05 Cloudy 72 22 64 18 78 78 SSE 8 13 30.04 1017 10 16 0.00 0.00
4:41 pm 16:41 Partly Cloudy 72 22 64 18 78 78 SE 10 17 30.04 1017 10 16 0.00 0.00
4:56 pm 16:56 Mostly Sunny 71 21.7 64 17.8 79 79 SSE 8 13 30.12 1020 10 16 0.00 0.00
5:56 pm 17:56 Sunny 69 20.6 65 18.3 87 87 SSE 6 9 30.13 1020 10 16 0.00 0.00
6:56 pm 18:56 Sunny 69 20.6 64 17.8 84 84 SSE 7 11 30.12 1020 10 16 0.00 0.00
7:56 pm 19:56 Sunny 66 18.9 63 17.2 90 90 SSE 9 15 30.13 1020 10 16 0.00 0.00
8:56 pm 20:56 Clear 63 17.2 61 16.1 93 93 S 9 15 30.14 1021 10 16 0.00 0.00
9:56 pm 21:56 Clear 62 16.7 61 16.1 96 96 S 9 15 30.14 1021 10 16 0.00 0.00
10:56 pm 22:56 Clear 60 15.6 60 15.6 100 100 S 5 7 30.15 1021 10 16 0.00 0.00
11:56 pm 23:56 Clear 59 15 59 15 100 100 Calm 30.16 1021 10 16 0.00 0.00

Powered by AerisWeather